Date String (YYYY-MM-DD hh:mm:ss) UTC,Instrument flags,Ambient pressure (hPa),Sample flow (lpm),Bypass flow (lpm),Sample temperature (°C),Ambient temperature (°C),ASC tube jacket temperature (°C),LED temperature (°C),Box temperature (°C),Sample RH (%),Span deviation,Mass concentration (μg/m³),Mass concentration (μg/m³),Mass concentration (μg/m³)
DateTimeUTC,F1_M11,P_M11,Q1_M11,Q2_M11,T1_M11,T2_M11,T3_M11,T4_M11,T5_M11,U1_M11,ZSPAN_M11,X0_M11,X2_M11,X1_M11
2022-06-10 20:00:00,,0825.6,5.01,0.00,28.8,27.7,00.0,37.5,30.7,30.1,0000.0,0022.99,0007.70,0005.14
2022-06-10 20:01:00,,0825.6,5.00,0.00,28.7,27.1,00.0,37.4,30.6,30.7,0000.0,0023.39,0007.69,0005.14
2022-06-10 20:02:00,,0825.6,5.00,0.00,28.7,26.7,00.0,37.4,30.5,28.5,0000.0,0022.57,0007.59,0005.11
2022-06-10 20:03:00,,0825.6,4.99,0.00,28.6,26.6,00.0,37.4,30.4,29.8,0000.0,0021.64,0007.47,0005.09
2022-06-10 20:04:00,,0825.6,5.02,0.00,28.5,26.7,00.0,37.4,30.3,30.5,0000.0,0021.14,0007.47,0005.05
2022-06-10 20:05:00,,0825.7,4.99,0.00,28.5,26.8,00.0,37.4,30.3,31.0,0000.0,0022.45,0007.53,0005.02
2022-06-10 20:06:00,,0825.6,5.00,0.00,28.5,27.0,00.0,37.4,30.4,30.7,0000.0,0023.79,0007.59,0005.01
2022-06-10 20:07:00,,0825.6,5.00,0.00,28.6,27.2,00.0,37.4,30.5,30.8,0000.0,0023.46,0007.53,0004.99
2022-06-10 20:08:00,,0825.6,5.01,0.00,28.6,27.4,00.0,37.4,30.6,29.3,0000.0,0022.72,0007.50,0004.96
2022-06-10 20:09:00,,0825.6,5.01,0.00,28.6,27.6,00.0,37.4,30.6,29.8,0000.0,0023.70,0007.41,0004.93
2022-06-10 20:10:00,,0825.6,5.00,0.00,28.7,27.8,00.0,37.5,30.7,29.4,0000.0,0023.53,0007.26,0004.90
2022-06-10 20:11:00,,0825.5,4.99,0.00,28.7,27.9,00.0,37.5,30.8,29.2,0000.0,0023.55,0007.18,0004.86
2022-06-10 20:12:00,,0825.5,4.99,0.00,28.8,27.7,00.0,37.5,30.8,30.3,0000.0,0024.15,0007.21,0004.84
2022-06-10 20:13:00,,0825.5,4.99,0.00,28.7,27.0,00.0,37.4,30.5,29.4,0000.0,0024.13,0007.16,0004.81
2022-06-10 20:14:00,,0825.6,4.99,0.00,28.7,26.7,00.0,37.4,30.5,29.0,0000.0,0024.88,0007.11,0004.78
2022-06-10 20:15:00,,0825.5,5.00,0.00,28.6,26.7,00.0,37.4,30.4,28.2,0000.0,0025.56,0007.02,0004.75
2022-06-10 20:16:00,,0825.5,5.01,0.00,28.6,26.8,00.0,37.4,30.3,28.2,0000.0,0024.38,0006.85,0004.74
2022-06-10 20:17:00,,0825.5,4.99,0.00,28.5,27.0,00.0,37.4,30.4,27.5,0000.0,0023.14,0006.79,0004.69
2022-06-10 20:18:00,,0825.5,5.00,0.00,28.6,27.2,00.0,37.4,30.5,27.4,0000.0,0024.51,0006.74,0004.65
2022-06-10 20:19:00,,0825.5,5.00,0.00,28.6,27.4,00.0,37.4,30.6,27.6,0000.0,0025.60,0006.73,0004.61
2022-06-10 20:20:00,,0825.4,5.01,0.00,28.6,27.6,00.0,37.4,30.6,26.2,0000.0,0024.91,0006.70,0004.56
2022-06-10 20:21:00,,0825.4,5.01,0.00,28.7,27.7,00.0,37.5,30.7,25.8,0000.0,0024.64,0006.66,0004.52
2022-06-10 20:22:00,,0825.5,5.00,0.00,28.7,27.9,00.0,37.5,30.8,25.7,0000.0,0023.64,0006.56,0004.46
2022-06-10 20:23:00,,0825.4,5.00,0.00,28.8,27.8,00.0,37.5,30.8,25.5,0000.0,0023.29,0006.45,0004.41
2022-06-10 20:24:00,,0825.5,5.01,0.00,28.7,27.2,00.0,37.4,30.6,24.9,0000.0,0022.96,0006.38,0004.36
2022-06-10 20:25:00,,0825.4,4.99,0.00,28.7,26.8,00.0,37.4,30.5,25.6,0000.0,0023.27,0006.39,0004.32
2022-06-10 20:26:00,,0825.4,4.99,0.00,28.6,26.7,00.0,37.4,30.4,25.3,0000.0,0022.44,0006.33,0004.28
2022-06-10 20:27:00,,0825.4,5.01,0.00,28.6,26.8,00.0,37.4,30.4,26.1,0000.0,0022.03,0006.30,0004.22
2022-06-10 20:28:00,,0825.5,5.00,0.00,28.6,27.0,00.0,37.4,30.4,27.1,0000.0,0023.19,0006.24,0004.17
2022-06-10 20:29:00,,0825.4,4.99,0.00,28.6,27.1,00.0,37.4,30.5,27.0,0000.0,0023.25,0006.23,0004.13
2022-06-10 20:30:00,,0825.4,4.99,0.00,28.6,27.3,00.0,37.4,30.5,26.5,0000.0,0023.53,0006.14,0004.08
2022-06-10 20:31:00,,0825.5,5.00,0.00,28.6,27.5,00.0,37.4,30.6,25.9,0000.0,0023.71,0006.10,0004.04
2022-06-10 20:32:00,,0825.5,5.01,0.00,28.7,27.7,00.0,37.5,30.7,25.9,0000.0,0023.44,0006.05,0004.01
2022-06-10 20:33:00,,0825.5,5.01,0.00,28.7,27.8,00.0,37.5,30.8,24.9,0000.0,0023.11,0006.03,0003.99
2022-06-10 20:34:00,,0825.5,5.01,0.00,28.8,28.0,00.0,37.5,30.8,25.8,0000.0,0023.33,0005.99,0003.96
2022-06-10 20:35:00,,0825.5,5.00,0.00,28.8,27.7,00.0,37.5,30.8,24.9,0000.0,0023.16,0005.98,0003.94
2022-06-10 20:36:00,,0825.4,5.00,0.00,28.7,27.0,00.0,37.4,30.6,24.9,0000.0,0022.58,0005.92,0003.93
2022-06-10 20:37:00,,0825.4,5.00,0.00,28.7,26.7,00.0,37.4,30.5,25.1,0000.0,0022.88,0005.92,0003.92
2022-06-10 20:38:00,,0825.4,4.99,0.00,28.6,26.7,00.0,37.4,30.4,24.5,0000.0,0023.51,0005.89,0003.92
2022-06-10 20:39:00,,0825.4,5.00,0.00,28.6,26.8,00.0,37.4,30.4,25.0,0000.0,0022.64,0005.86,0003.92
2022-06-10 20:40:00,,0825.4,5.01,0.00,28.6,27.0,00.0,37.4,30.4,26.6,0000.0,0021.55,0005.75,0003.91
2022-06-10 20:41:00,,0825.4,5.00,0.00,28.6,27.2,00.0,37.4,30.5,26.9,0000.0,0020.92,0005.68,0003.89
2022-06-10 20:42:00,,0825.3,5.00,0.00,28.6,27.4,00.0,37.4,30.6,26.5,0000.0,0019.76,0005.63,0003.89
2022-06-10 20:43:00,,0825.3,4.99,0.00,28.7,27.5,00.0,37.5,30.7,24.9,0000.0,0019.43,0005.60,0003.88
2022-06-10 20:44:00,,0825.4,5.01,0.00,28.7,27.7,00.0,37.5,30.7,24.8,0000.0,0019.28,0005.62,0003.87
2022-06-10 20:45:00,,0825.3,5.01,0.00,28.8,27.9,00.0,37.5,30.8,24.7,0000.0,0018.34,0005.58,0003.86
2022-06-10 20:46:00,,0825.3,4.99,0.00,28.8,27.7,00.0,37.5,30.8,25.8,0000.0,0018.01,0005.60,0003.85
2022-06-10 20:47:00,,0825.3,5.00,0.00,28.8,27.1,00.0,37.5,30.6,25.5,0000.0,0017.63,0005.65,0003.86
2022-06-10 20:48:00,,0825.4,5.01,0.00,28.7,26.8,00.0,37.4,30.5,25.7,0000.0,0017.65,0005.67,0003.86
2022-06-10 20:49:00,,0825.4,4.99,0.00,28.6,26.7,00.0,37.4,30.4,24.8,0000.0,0018.62,0005.68,0003.85
2022-06-10 20:50:00,,0825.3,5.00,0.00,28.6,26.8,00.0,37.4,30.3,25.4,0000.0,0019.18,0005.72,0003.85
2022-06-10 20:51:00,,0825.3,5.00,0.00,28.6,27.0,00.0,37.4,30.4,27.8,0000.0,0019.82,0005.76,0003.85
2022-06-10 20:52:00,,0825.3,5.01,0.00,28.6,27.1,00.0,37.4,30.4,26.8,0000.0,0020.05,0005.82,0003.85
2022-06-10 20:53:00,,0825.3,5.00,0.00,28.6,27.3,00.0,37.4,30.5,26.8,0000.0,0020.10,0005.84,0003.85
2022-06-10 20:54:00,,0825.3,5.00,0.00,28.7,27.5,00.0,37.4,30.6,27.6,0000.0,0020.08,0005.90,0003.86
2022-06-10 20:55:00,,0825.3,4.99,0.00,28.7,27.7,00.0,37.5,30.7,27.2,0000.0,0020.61,0005.94,0003.88
2022-06-10 20:56:00,,0825.3,4.99,0.00,28.7,27.9,00.0,37.5,30.8,25.3,0000.0,0021.09,0005.97,0003.89
2022-06-10 20:57:00,,0825.2,5.00,0.00,28.8,27.8,00.0,37.5,30.8,25.7,0000.0,0021.54,0006.01,0003.89
2022-06-10 20:58:00,,0825.2,5.01,0.00,28.8,27.2,00.0,37.5,30.6,25.3,0000.0,0021.58,0005.98,0003.89
2022-06-10 20:59:00,,0825.2,4.99,0.00,28.7,26.7,00.0,37.4,30.5,26.8,0000.0,0021.09,0005.98,0003.90
